Weather History for KVUO - October, 2013

Change the Weather History Date:

Friday, October 4, 2013

  Actual Average Record
Temperature  
Mean Temperature 54 °F 58 °F  
Max Temperature 65 °F 68 °F 88 °F (1932)
Min Temperature 43 °F 47 °F 30 °F (1973)
Degree Days  
Heating Degree Days 11    
Month to date heating degree days 53  
Since 1 July heating degree days 156  
Cooling Degree Days 0    
Month to date cooling degree days 0  
Year to date cooling degree days 450  
Growing Degree Days 3 (Base 50)    
Moisture  
Dew Point 45 °F    
Average Humidity 76    
Maximum Humidity 100    
Minimum Humidity 52    
Precipitation  
Precipitation 0.00 in 0.08 in 0.88 in (1922)
Month to date precipitation 0.48 0.30  
Year to date precipitation 21.55 23.69  
Snow  
Snow 0.00 in - - ()
Month to date snowfall 0.0  
Snow Depth 0.00 in    
Sea Level Pressure  
Sea Level Pressure 30.42 in    
Wind  
Wind Speed 2 mph (NW)    
Max Wind Speed 9 mph    
Max Gust Speed 12 mph    
Visibility 6 miles    
Events      
T = Trace of Precipitation, MM = Missing Value Source: NWS Daily Summary

Daily Weather History Graph

Daily Weather History Graph

Search for Another Location

Airport or City:

Trip Planner

Search our weather history database for the weather conditions in past years. The results will help you decide how hot, cold, wet, or windy it might be!

Date:

Astronomy

Oct. 04, 2013 Rise Set
Actual Time 7:13 AM PDT 6:44 PM PDT
Civil Twilight 6:43 AM PDT 7:14 PM PDT
Nautical Twilight 6:09 AM PDT 7:48 PM PDT
Astronomical Twilight 5:34 AM PDT 8:23 PM PDT
Moon 6:55 AM PDT (10/4) 6:27 PM PDT (10/4)
Length of Visible Light 12h 30m
Length of Day
11h 31m
Waning Crescent, 0% of the Moon is Illuminated
Oct 4
Waning Crescent
Oct 4
New
Oct 11
First Quarter
Oct 18
Full
Oct 26
Last Quarter

Hourly Weather History & Observations

Time (PDT) Temp. Windchill Dew Point Humidity Pressure Visibility Wind Dir Wind Speed Gust Speed Precip Events Conditions
12:08 AM 42.8 °F - 42.8 °F 100% 30.44 in 8.0 mi Calm Calm - N/A   Mostly Cloudy
12:53 AM 46.0 °F 44.8 °F 45.0 °F 96% 30.45 in 10.0 mi ESE 3.5 mph - N/A   Overcast
1:53 AM 48.0 °F - 46.0 °F 93% 30.45 in 8.0 mi Calm Calm - N/A   Overcast
2:53 AM 46.9 °F - 46.0 °F 97% 30.45 in 5.0 mi Calm Calm - N/A   Overcast
3:53 AM 46.9 °F - 45.0 °F 93% 30.45 in 4.0 mi NW 3.5 mph - N/A   Overcast
4:24 AM 46.4 °F 44.3 °F 44.6 °F 93% 30.44 in 2.5 mi NNW 4.6 mph - N/A   Overcast
4:34 AM 46.4 °F 44.3 °F 44.6 °F 93% 30.44 in 4.0 mi NNW 4.6 mph - N/A   Overcast
4:53 AM 45.0 °F 42.6 °F 44.1 °F 97% 30.44 in 10.0 mi NNW 4.6 mph - N/A   Overcast
5:53 AM 45.0 °F 43.5 °F 43.0 °F 93% 30.45 in 3.0 mi NW 3.5 mph - N/A   Overcast
6:13 AM 44.6 °F 43.1 °F 42.8 °F 93% 30.45 in 1.8 mi West 3.5 mph - N/A   Overcast
6:30 AM 44.6 °F - 42.8 °F 93% 30.46 in 3.0 mi Calm Calm - N/A   Overcast
6:43 AM 44.6 °F 43.1 °F 42.8 °F 93% 30.46 in 1.8 mi NW 3.5 mph - N/A   Overcast
6:51 AM 44.6 °F 43.1 °F 42.8 °F 93% 30.46 in 1.2 mi NW 3.5 mph - N/A   Overcast
6:53 AM 44.1 °F 42.5 °F 43.0 °F 96% 30.46 in 1.2 mi WNW 3.5 mph - N/A   Overcast
7:12 AM 44.6 °F 43.1 °F 42.8 °F 93% 30.46 in 1.8 mi North 3.5 mph - N/A   Overcast
7:20 AM 44.6 °F 43.1 °F 42.8 °F 93% 30.46 in 2.5 mi NNW 3.5 mph - N/A   Overcast
7:28 AM 42.8 °F 41.1 °F 42.8 °F 100% 30.46 in 3.0 mi NNW 3.5 mph - N/A   Overcast
7:42 AM 42.8 °F 41.1 °F 42.8 °F 100% 30.46 in 2.5 mi North 3.5 mph - N/A   Overcast
7:53 AM 43.0 °F - 42.1 °F 97% 30.47 in 5.0 mi Calm Calm - N/A   Overcast
8:53 AM 44.1 °F 42.5 °F 42.1 °F 93% 30.47 in 10.0 mi WNW 3.5 mph - N/A   Overcast
9:53 AM 45.0 °F 42.6 °F 43.0 °F 93% 30.47 in 10.0 mi NW 4.6 mph - N/A   Overcast
10:03 AM 46.4 °F 44.3 °F 42.8 °F 87% 30.47 in 10.0 mi NW 4.6 mph - N/A   Overcast
10:53 AM 48.9 °F - 44.1 °F 83% 30.47 in 10.0 mi Calm Calm - N/A   Mostly Cloudy
11:14 AM 48.2 °F - 44.6 °F 87% 30.47 in 10.0 mi Calm Calm - N/A   Scattered Clouds
11:53 AM 51.1 °F - 45.0 °F 80% 30.46 in 10.0 mi West 4.6 mph - N/A   Partly Cloudy
12:53 PM 54.0 °F - 46.0 °F 75% 30.44 in 10.0 mi Variable 3.5 mph - N/A   Clear
1:53 PM 57.0 °F - 46.9 °F 69% 30.42 in 10.0 mi West 8.1 mph - N/A   Clear
2:53 PM 61.0 °F - 46.9 °F 60% 30.39 in 10.0 mi Calm Calm - N/A   Clear
3:53 PM 63.0 °F - 48.0 °F 58% 30.38 in 10.0 mi Calm Calm - N/A   Clear
4:53 PM 64.0 °F - 46.9 °F 54% 30.37 in 10.0 mi Variable 3.5 mph - N/A   Clear
5:53 PM 64.0 °F - 48.0 °F 56% 30.35 in 10.0 mi Calm Calm - N/A   Clear
6:53 PM 57.0 °F - 48.9 °F 74% 30.35 in 10.0 mi Calm Calm - N/A   Clear
7:53 PM 52.0 °F - 46.9 °F 83% 30.35 in 10.0 mi Calm Calm - N/A   Clear
8:53 PM 50.0 °F - 46.0 °F 86% 30.35 in 10.0 mi Calm Calm - N/A   Clear
9:53 PM 51.1 °F - 46.0 °F 83% 30.36 in 10.0 mi Calm Calm - N/A   Clear
10:53 PM 48.0 °F - 44.1 °F 86% 30.35 in 10.0 mi Calm Calm - N/A   Clear
11:45 PM 46.4 °F - 44.6 °F 93% 30.35 in 1.8 mi Calm Calm - N/A   Clear
11:49 PM 44.6 °F - 42.8 °F 93% 30.35 in 0.8 mi Calm Calm - N/A   Clear
11:53 PM 46.0 °F - 44.1 °F 93% 30.35 in 0.8 mi Calm Calm - N/A   Clear
11:59 PM 46.4 °F - 44.6 °F 93% 30.35 in 1.5 mi Calm Calm - 0.01 in   Clear